Vertical_Velocity
-2 -2 -1 -2 -7 -5 -5 -4 10 -4 2 25 -9 -8 -8 -10 -4 -3 -6 -2 0 -1 -2 -0 0 4 6 -5 -1 -6 4 3 5 16 5 2 -1 -2 1 -3 -2 -1 -1 -8
-4 -3 -1 -0 -0 1 -0 -3 -4 -7 -13 1 -10 -9 -2 -4 -3 -11 8 0 -2 2 -1 -1 -0 -3 1 0 3 13 -2 -1 8 6 3 -5 -7 2 7 7 -7 -3 -2 -4
-2 -3 -4 -3 -4 -3 -4 -8 -7 1 -6 -10 -4 2 -6 -6 -3 -10 -10 -7 -2 -1 -6 3 1 3 -2 1 -3 1 2 -1 1 1 10 4 -8 2 7 6 -1 10 1 1
-2 -4 -6 -5 -3 -4 -2 -5 -3 -6 -0 -1 -6 -6 -2 -7 -5 -2 -7 -4 -5 -2 -1 -7 -5 -1 -6 -3 1 -0 -3 2 -2 -7 -4 4 7 12 7 -9 12 5 2 7
-3 -4 3 -4 -3 -3 -6 -4 -1 -6 -8 -5 -8 -2 -4 -0 -6 -7 -3 -8 -2 -3 1 2 -1 -2 3 5 4 -2 -0 -3 -1 -1 -2 6 -2 6 3 5 -1 -2 -9 -8
-0 1 -1 -1 -2 -5 -9 1 -7 -4 -5 -0 1 -2 -4 -3 -1 -2 -4 -2 -9 -5 -2 -1 -1 3 1 -0 0 -5 -1 -4 2 -4 0 1 0 -6 -4 -3 -2 3 -6 9
-3 2 -2 -4 -4 0 -2 -5 -8 -3 -4 -4 -3 -3 -4 -2 -3 -3 -5 -3 -6 -6 -6 -8 -7 -1 -0 -0 -1 3 6 -2 -1 -1 1 -4 1 3 0 1 -0 3 -2 3
-6 1 -3 -3 -4 -3 -5 -3 -3 -2 -2 -0 -3 0 1 0 -6 -5 -2 -3 -1 -6 -5 -4 -2 -5 -4 2 3 0 7 6 -1 -3 16 6 20 -7 -3 -1 1 2 4 9
-3 -2 -0 -0 -2 -2 -7 -6 -4 -2 -1 -1 -3 -2 -4 -3 -1 1 -2 -1 -2 -3 -6 -11 -8 -8 1 -0 3 -3 -0 1 3 3 -3 1 13 -0 -0 9 -3 -0 1 1
-0 -3 -3 -1 -3 -2 -2 -3 -5 -6 2 -2 -1 -1 -1 -3 -2 -5 -4 -0 -0 -5 -1 -3 -4 -2 -4 -7 2 -3 -4 -2 -1 1 5 2 7 4 3 -3 3 1 4 3
-1 -6 2 1 0 -5 -5 -2 -6 -4 1 -2 -1 -1 -1 0 -1 -1 -2 -0 1 -0 -1 -4 -4 -2 -1 -3 -3 -7 -4 -1 0 1 4 -10 3 -1 12 4 0 2 3 -0
-1 -3 -3 -0 4 -8 -2 -1 -1 -5 -6 -2 -2 -1 -1 -1 -2 -1 2 -3 -1 2 0 -0 -2 -2 -4 -4 -4 -0 -3 -3 -8 -4 -6 -4 2 -5 -1 -3 -4 -5 -3 3
-3 -2 -2 -3 6 -0 -6 -3 -1 2 -6 -5 -2 -3 -2 -3 -1 -1 -1 2 -1 -1 -2 1 -2 -2 5 -2 1 -3 1 1 1 -3 3 3 0 2 -2 0 3 -2 -5 -1
1 -2 -2 -3 4 -0 -3 -5 -4 -2 1 -2 -6 -4 -3 -3 -2 -1 -3 1 1 -4 -1 4 2 1 2 2 -3 -1 -3 -0 2 -0 1 -3 -6 -4 -5 2 -2 -0 3 1
13 -3 0 -4 0 -1 -1 -5 -4 -3 -2 2 -1 -2 2 0 -1 -4 -1 -5 2 1 -4 1 1 -3 -5 1 -1 -4 -3 -3 -3 -2 -1 -1 -2 0 2 0 -1 -4 -1 2
20 -7 -1 -3 -2 2 -3 2 -4 -6 -7 -5 1 -7 -4 -1 -1 -1 -2 -3 -2 4 0 -3 0 -4 -7 -2 2 -14 -1 -2 -4 -2 2 1 2 2 1 0 1 -0 1 3
11 -3 -2 -2 -4 4 -8 -8 -4 -2 -1 -6 -0 -2 -4 -2 -2 0 -2 0 -2 0 3 -2 2 5 2 2 1 0 -2 -4 -4 -2 -3 -1 4 2 0 0 1 -1 2 4
13 -0 -5 1 -4 5 -1 -2 -5 -3 -2 -3 -5 -4 -2 0 -3 -6 -1 -2 -3 3 5 0 -4 4 -1 9 9 7 1 -1 -2 -3 -4 -2 -3 -0 -0 -1 -1 -3 -2 -2
11 1 -4 -2 -2 6 -1 -1 -4 3 -8 0 -1 -4 -3 2 -1 -1 -0 -4 -5 2 2 -2 -0 6 -6 -2 -6 0 5 1 -0 -0 -2 -5 -1 -2 -2 -1 0 -4 -4 -3
7 1 -6 -6 1 6 1 9 -3 -1 -0 -2 -3 2 -5 -2 -2 -5 -3 -3 -5 -10 9 -1 3 24 -3 -7 0 -5 -3 1 -0 -1 -0 -0 -3 -4 -1 -2 -0 -2 -1 -1
7 -2 -5 -3 -4 6 0 2 -2 1 0 -0 0 1 -0 0 -5 -4 -2 -6 -9 -14 -2 -4 -1 20 6 -1 3 -0 -2 -0 2 1 1 -1 1 -2 -5 -2 1 -2 -2 1
7 -1 -11 0 -3 2 5 4 -1 -1 1 -1 -4 -1 0 -1 -5 -5 -4 -9 -7 -14 -8 -5 -8 14 -2 0 0 0 -2 -2 -2 1 2 2 2 2 -1 -3 -3 -3 0 1
6 -1 -7 1 -1 6 5 2 -1 -1 1 1 1 -2 -2 -1 -3 -2 -6 -10 -1 -5 -6 -3 17 -14 0 3 2 1 3 0 -2 -3 1 3 4 3 0 -2 1 -1 -3 -0
1 -8 -6 -1 3 5 4 1 -0 2 0 0 -1 -1 -6 6 -3 5 -4 -13 -3 -11 -4 3 -8 0 -0 -0 2 2 3 2 1 -1 0 4 5 2 1 -2 0 1 -1 -1
-5 -7 -5 -2 12 10 7 2 -2 -0 1 1 -0 -5 -4 1 -5 -0 -0 -2 -6 -1 -3 -8 -8 -10 -6 -7 -4 -3 0 1 1 0 -0 1 2 2 2 1 1 0 -1 -2
-8 -12 1 18 9 2 3 2 4 3 4 5 2 1 -9 -5 -2 1 0 -2 9 -1 -8 -4 -2 -2 1 0 -1 -5 -2 -1 -1 -2 -1 1 3 2 -3 0 0 0 -1 -1
-4 5 22 7 3 6 2 1 6 2 -1 0 4 1 -1 3 -11 -4 -3 -2 -3 2 1 2 1 1 1 2 -0 -2 1 0 -0 1 1 2 3 1 -2 -1 1 -1 1 -1
Height
5722 5714 5705 5696 5684 5674 5663 5651 5642 5630 5620 5618 5604 5592 5582 5576 5571 5564 5563 5565 5567 5570 5574 5576 5579 5584 5587 5590 5593 5598 5604 5610 5616 5623 5626 5631 5638 5643 5649 5653 5661 5667 5671 5679
5720 5713 5705 5696 5686 5676 5665 5654 5644 5633 5623 5617 5607 5599 5592 5586 5581 5580 5574 5571 5573 5574 5577 5579 5581 5585 5587 5592 5595 5597 5603 5609 5613 5618 5624 5627 5635 5640 5645 5650 5657 5662 5667 5672
5719 5710 5703 5695 5686 5677 5667 5656 5647 5639 5628 5618 5611 5606 5601 5595 5589 5583 5580 5574 5573 5577 5578 5581 5583 5586 5590 5591 5594 5598 5603 5608 5612 5617 5624 5628 5632 5637 5640 5644 5649 5656 5660 5667
5715 5708 5701 5693 5685 5676 5668 5658 5649 5638 5630 5623 5616 5610 5604 5599 5596 5591 5586 5582 5579 5575 5578 5581 5583 5585 5588 5591 5594 5596 5599 5603 5609 5613 5618 5623 5628 5632 5635 5639 5645 5649 5654 5659
5711 5704 5699 5691 5683 5674 5667 5659 5650 5640 5631 5623 5617 5613 5608 5603 5599 5595 5590 5587 5583 5581 5579 5581 5584 5585 5587 5589 5591 5594 5597 5600 5605 5608 5613 5618 5621 5625 5626 5632 5637 5641 5646 5652
5707 5701 5695 5688 5681 5674 5667 5658 5649 5641 5633 5626 5621 5616 5610 5606 5601 5599 5594 5590 5587 5584 5583 5581 5580 5582 5584 5585 5587 5589 5593 5595 5600 5604 5608 5612 5613 5616 5621 5625 5630 5634 5638 5643
5704 5697 5692 5685 5678 5671 5664 5656 5649 5640 5633 5627 5621 5615 5610 5606 5602 5599 5596 5593 5589 5586 5583 5580 5577 5574 5576 5578 5582 5585 5588 5590 5594 5598 5602 5602 5607 5610 5614 5618 5622 5626 5630 5634
5699 5693 5687 5681 5674 5667 5661 5653 5646 5639 5632 5625 5619 5614 5610 5606 5602 5599 5595 5592 5590 5587 5582 5578 5575 5571 5566 5567 5572 5578 5582 5584 5588 5592 5594 5596 5599 5603 5608 5611 5615 5617 5622 5626
5693 5688 5684 5677 5669 5663 5658 5652 5644 5637 5631 5624 5618 5613 5609 5604 5601 5598 5594 5591 5588 5586 5583 5579 5575 5571 5567 5564 5565 5568 5572 5575 5581 5584 5585 5588 5593 5596 5600 5603 5605 5609 5612 5615
5688 5679 5677 5673 5665 5659 5653 5647 5640 5633 5627 5621 5615 5610 5606 5602 5598 5595 5592 5589 5586 5584 5581 5578 5575 5571 5569 5566 5562 5563 5565 5566 5570 5573 5576 5580 5585 5588 5590 5592 5601 5600 5602 5604
5682 5673 5666 5666 5660 5653 5648 5643 5636 5630 5622 5617 5611 5607 5603 5598 5595 5592 5589 5587 5583 5580 5578 5576 5573 5570 5568 5566 5564 5563 5562 5562 5564 5565 5566 5569 5574 5579 5581 5583 5586 5589 5591 5593
5676 5667 5659 5656 5654 5649 5643 5638 5632 5626 5620 5613 5607 5603 5599 5595 5591 5587 5585 5582 5580 5576 5574 5572 5569 5567 5564 5563 5561 5560 5559 5559 5558 5559 5560 5560 5562 5566 5568 5571 5575 5577 5579 5580
5669 5659 5652 5647 5646 5642 5636 5632 5626 5621 5615 5608 5601 5597 5594 5590 5586 5583 5581 5578 5576 5573 5570 5568 5566 5564 5562 5562 5559 5557 5555 5553 5552 5551 5550 5551 5552 5555 5555 5558 5561 5563 5565 5567
5660 5651 5645 5637 5635 5633 5626 5623 5618 5614 5609 5603 5596 5590 5588 5585 5581 5578 5575 5572 5570 5568 5566 5563 5561 5560 5559 5557 5556 5554 5553 5550 5548 5547 5546 5545 5543 5544 5543 5545 5546 5547 5549 5551
5651 5642 5635 5626 5624 5623 5618 5613 5608 5604 5601 5596 5591 5584 5581 5578 5576 5572 5569 5566 5563 5561 5560 5557 5554 5553 5553 5551 5550 5547 5546 5544 5542 5540 5538 5537 5536 5535 5535 5533 5533 5535 5536 5537
5639 5632 5624 5615 5611 5612 5608 5604 5599 5594 5590 5586 5583 5577 5574 5571 5569 5565 5562 5560 5557 5554 5552 5549 5545 5544 5545 5543 5541 5539 5538 5536 5535 5534 5532 5530 5528 5526 5526 5526 5525 5524 5524 5522
5626 5621 5614 5606 5597 5600 5598 5594 5588 5583 5579 5577 5573 5569 5566 5563 5560 5557 5555 5552 5550 5546 5544 5543 5539 5535 5534 5533 5529 5528 5528 5526 5524 5523 5523 5521 5519 5517 5514 5513 5512 5511 5511 5510
5612 5608 5600 5594 5585 5585 5585 5581 5576 5571 5566 5565 5563 5560 5558 5554 5552 5549 5547 5544 5542 5539 5535 5535 5534 5528 5525 5524 5523 5519 5518 5516 5514 5512 5510 5508 5507 5505 5503 5501 5498 5497 5496 5494
5595 5593 5585 5580 5573 5574 5571 5567 5563 5558 5557 5553 5551 5548 5547 5544 5542 5540 5538 5535 5533 5532 5527 5526 5526 5522 5515 5515 5513 5512 5509 5507 5504 5500 5498 5496 5493 5491 5489 5487 5485 5482 5481 5480
5580 5577 5570 5563 5560 5560 5558 5554 5550 5545 5543 5540 5539 5536 5534 5534 5531 5528 5528 5525 5523 5522 5520 5516 5516 5516 5508 5505 5502 5501 5499 5495 5492 5488 5486 5483 5481 5477 5474 5472 5470 5468 5466 5464
5565 5561 5556 5549 5546 5547 5542 5541 5537 5532 5530 5528 5527 5525 5523 5521 5519 5517 5514 5513 5511 5511 5510 5506 5505 5504 5497 5494 5491 5489 5485 5482 5478 5475 5472 5469 5466 5462 5460 5457 5454 5452 5451 5448
5547 5543 5537 5533 5533 5530 5529 5527 5523 5520 5518 5516 5515 5513 5510 5508 5506 5503 5501 5501 5499 5497 5497 5494 5493 5491 5484 5481 5477 5473 5470 5467 5463 5460 5456 5452 5449 5445 5442 5440 5438 5436 5434 5432
5528 5524 5521 5522 5520 5515 5515 5514 5510 5507 5505 5505 5503 5501 5499 5496 5493 5490 5489 5487 5486 5484 5482 5481 5481 5472 5469 5466 5462 5457 5454 5450 5446 5442 5439 5436 5433 5429 5426 5423 5421 5419 5417 5415
5509 5506 5506 5509 5504 5502 5503 5501 5498 5495 5493 5493 5491 5489 5487 5485 5481 5477 5474 5472 5470 5467 5466 5466 5460 5456 5452 5449 5446 5441 5436 5433 5429 5426 5423 5420 5417 5414 5411 5408 5405 5403 5400 5398
5490 5489 5492 5494 5491 5492 5490 5487 5485 5483 5482 5480 5478 5474 5473 5471 5466 5463 5461 5456 5454 5453 5450 5443 5440 5438 5434 5432 5428 5425 5421 5417 5413 5410 5407 5404 5401 5398 5395 5393 5390 5387 5385 5382
5472 5475 5479 5479 5480 5478 5477 5473 5472 5471 5470 5468 5464 5460 5456 5455 5452 5450 5447 5444 5442 5436 5430 5427 5424 5420 5418 5415 5412 5409 5406 5402 5399 5396 5393 5389 5386 5382 5379 5377 5375 5372 5370 5368
5461 5465 5465 5465 5465 5464 5462 5461 5461 5459 5457 5454 5450 5446 5442 5438 5435 5434 5431 5428 5423 5417 5412 5409 5406 5404 5401 5398 5395 5392 5389 5387 5384 5380 5377 5374 5370 5367 5364 5362 5359 5357 5354 5352